Tracking 17925 objects as of 20-February-2017
HD Live streaming from Space Station
objects crossing your sky now

METEOSAT 9 (MSG 2)

Track METEOSAT 9 (MSG 2) now!
METEOSAT 9 (MSG 2) is classified as:


NORAD ID: 28912
Int'l Code: 2005-049B
Perigee: 35,792.6 km
Apogee: 35,797.5 km
Inclination: 2.0 °
Period: 1,436.2 minutes
Semi major axis: 42166 km
RCS: 2.0767 m2 (large)
Launch date: December 21, 2005
Source: European Organisation for the Exploitation of Meteorological Satellites (EUME)
Launch site: FRENCH GUIANA (FRGUI)
Your satellite tracking list
Your tracking list is empty





NASA's NSSDC Master Catalog

Two Line Element Set (TLE):
1 28912U 05049B   17050.23624248  .00000052  00000-0  00000+0 0  9990
2 28912   1.9740  70.5292 0000577  29.6076 143.6703  1.00267184 40938
Source of the keplerian elements: AFSPC